Weather reports worldwide

Advertisment
Siracusa, Italy (16464): temperature & dewpoint: 20.05.2019 20:00:00 - 26.05.2019 20:00:00 (CEST)Siracusa, Italy (16464): reduced air pressure: 20.05.2019 20:00:00 - 26.05.2019 20:00:00 (CEST)
Date & Time tt [°C] td [°C] ppp [hPa]
26.05.2019 20:00:00 - - -
26.05.2019 19:00:00 19,6 16,0 1006,4
26.05.2019 18:00:00 20,1 16,1 1006,9
26.05.2019 17:00:00 20,3 16,1 1008,1
26.05.2019 16:00:00 19,7 16,1 1008,5
26.05.2019 15:00:00 19,7 16,9 1009,1
26.05.2019 14:00:00 18,8 16,3 1010,8
26.05.2019 13:00:00 19,2 16,2 1012,0
26.05.2019 12:00:00 19,4 16,9 1011,0
26.05.2019 11:00:00 18,5 15,9 1012,1
26.05.2019 10:00:00 19,1 16,1 1013,1
26.05.2019 09:00:00 18,8 16,2 1012,7
26.05.2019 08:00:00 18,7 16,6 1012,5
26.05.2019 07:00:00 18,3 17,8 1011,5
26.05.2019 06:00:00 18,3 17,8 1011,8
26.05.2019 05:00:00 18,3 16,6 1011,1
26.05.2019 04:00:00 18,3 16,4 1012,1
26.05.2019 03:00:00 18,2 15,9 1012,8
26.05.2019 02:00:00 18,5 16,0 1013,1
26.05.2019 01:00:00 18,5 15,9 1014,8
26.05.2019 00:00:00 18,0 15,4 1015,1
25.05.2019 23:00:00 18,3 15,8 1015,2
25.05.2019 22:00:00 18,5 16,0 1014,5
25.05.2019 21:00:00 18,9 16,4 1014,8
25.05.2019 20:00:00 19,0 16,5 1015,6
25.05.2019 19:00:00 19,5 15,9 1014,5
25.05.2019 18:00:00 19,7 15,5 1014,5
25.05.2019 17:00:00 20,3 15,2 1015,1
25.05.2019 16:00:00 20,5 15,2 1015,6
25.05.2019 15:00:00 19,5 15,1 1016,8
25.05.2019 14:00:00 20,3 13,9 1016,4
25.05.2019 13:00:00 20,9 14,0 1016,5
25.05.2019 12:00:00 20,0 14,3 1015,2
25.05.2019 11:00:00 20,2 14,0 1016,6
25.05.2019 10:00:00 19,6 13,4 1016,4
25.05.2019 09:00:00 19,1 12,8 1016,1
25.05.2019 08:00:00 16,4 11,7 1015,8
25.05.2019 07:00:00 15,4 11,0 1015,2
25.05.2019 06:00:00 15,2 10,8 1015,0
25.05.2019 05:00:00 14,9 10,1 1014,2
25.05.2019 04:00:00 14,3 9,1 1014,7
25.05.2019 03:00:00 15,1 9,2 1014,6
25.05.2019 02:00:00 16,7 11,4 1014,8
25.05.2019 01:00:00 18,5 12,7 1015,0
25.05.2019 00:00:00 18,3 13,5 1015,4
24.05.2019 23:00:00 18,3 13,9 1015,5
24.05.2019 22:00:00 18,4 13,6 1015,2
24.05.2019 21:00:00 19,1 14,5 1014,7
24.05.2019 20:00:00 19,7 14,6 1014,6
24.05.2019 19:00:00 20,2 14,5 1014,3
24.05.2019 18:00:00 20,1 15,0 1014,4
24.05.2019 17:00:00 20,6 15,1 1014,8
24.05.2019 16:00:00 20,7 14,9 1015,4
24.05.2019 15:00:00 20,7 12,6 1015,8
24.05.2019 14:00:00 22,3 12,2 1016,0
24.05.2019 13:00:00 22,0 9,8 1016,6
24.05.2019 12:00:00 21,1 10,5 1016,6
24.05.2019 11:00:00 20,9 9,1 1016,5
24.05.2019 10:00:00 20,7 9,8 1016,3
24.05.2019 09:00:00 19,1 11,4 1016,6
24.05.2019 08:00:00 16,3 11,4 1016,7
24.05.2019 07:00:00 12,9 8,9 1016,4
24.05.2019 06:00:00 12,1 7,8 1016,0
24.05.2019 05:00:00 12,7 8,1 1015,8
24.05.2019 04:00:00 14,2 9,4 1015,7
24.05.2019 03:00:00 14,1 9,1 1015,9
24.05.2019 02:00:00 14,7 9,7 1016,1
24.05.2019 01:00:00 15,1 10,3 1016,4
24.05.2019 00:00:00 16,4 11,1 1016,7
23.05.2019 23:00:00 18,3 12,7 1016,8
23.05.2019 22:00:00 18,8 13,1 1016,7
23.05.2019 21:00:00 19,0 13,5 1016,1
23.05.2019 20:00:00 20,0 12,7 1015,8
23.05.2019 19:00:00 20,3 13,7 1015,7
23.05.2019 18:00:00 20,4 14,0 1016,0
23.05.2019 17:00:00 21,3 12,7 1016,3
23.05.2019 16:00:00 - - -
23.05.2019 15:00:00 21,5 10,9 1017,0
23.05.2019 14:00:00 22,1 12,0 1017,1
23.05.2019 13:00:00 21,5 10,0 1017,5
23.05.2019 12:00:00 21,3 10,1 1017,7
23.05.2019 11:00:00 20,6 10,3 1017,7
23.05.2019 10:00:00 19,7 10,1 1017,4
23.05.2019 09:00:00 19,2 10,2 1017,3
23.05.2019 08:00:00 17,2 12,8 1017,0
23.05.2019 07:00:00 13,2 7,8 1016,9
23.05.2019 06:00:00 12,9 7,1 1016,4
23.05.2019 05:00:00 13,4 7,3 1016,3
23.05.2019 04:00:00 13,7 7,4 1016,5
23.05.2019 03:00:00 14,2 7,9 1016,8
23.05.2019 02:00:00 14,7 8,8 1016,9
23.05.2019 01:00:00 15,7 9,8 1017,2
23.05.2019 00:00:00 16,9 11,1 1017,8
22.05.2019 23:00:00 18,7 13,0 1017,5
22.05.2019 22:00:00 19,4 13,5 1017,3
22.05.2019 21:00:00 19,6 12,8 1017,4
22.05.2019 20:00:00 19,5 12,9 1017,1
22.05.2019 19:00:00 20,0 12,7 1016,7
22.05.2019 18:00:00 20,1 13,5 1016,4
22.05.2019 17:00:00 21,2 13,0 1016,5
22.05.2019 16:00:00 21,6 14,4 1016,4
22.05.2019 15:00:00 20,7 12,6 1016,6
22.05.2019 14:00:00 21,9 11,0 1017,4
22.05.2019 13:00:00 20,4 10,2 1017,7
22.05.2019 12:00:00 20,6 11,5 1018,0
22.05.2019 11:00:00 19,4 12,8 1018,1
22.05.2019 10:00:00 18,5 13,3 1018,1
22.05.2019 09:00:00 18,2 13,4 1018,1
22.05.2019 08:00:00 16,1 11,4 1017,6
22.05.2019 07:00:00 14,5 9,7 1017,9
22.05.2019 06:00:00 14,4 9,6 1017,5
22.05.2019 05:00:00 14,2 9,4 1017,7
22.05.2019 04:00:00 14,4 9,8 1017,7
22.05.2019 03:00:00 14,6 9,8 1017,9
22.05.2019 02:00:00 15,4 10,3 1018,1
22.05.2019 01:00:00 15,7 10,6 1018,7
22.05.2019 00:00:00 16,4 11,3 1018,6
21.05.2019 23:00:00 16,8 11,5 1018,8
21.05.2019 22:00:00 17,7 12,8 1018,5
21.05.2019 21:00:00 18,6 12,8 1017,9
21.05.2019 20:00:00 19,0 13,1 1017,6
21.05.2019 19:00:00 19,1 13,8 1017,4
21.05.2019 18:00:00 19,5 13,8 1017,3
21.05.2019 17:00:00 20,0 13,8 1017,1
21.05.2019 16:00:00 20,3 13,9 1016,9
21.05.2019 15:00:00 20,8 13,9 1017,2
21.05.2019 14:00:00 20,1 13,2 1017,4
21.05.2019 13:00:00 19,9 12,8 1017,5
21.05.2019 12:00:00 19,6 12,6 1017,9
21.05.2019 11:00:00 19,3 12,3 1017,7
21.05.2019 10:00:00 18,8 12,0 1017,6
21.05.2019 09:00:00 17,2 10,7 1017,3
21.05.2019 08:00:00 15,5 10,6 1017,0
21.05.2019 07:00:00 12,3 7,9 1016,7
21.05.2019 06:00:00 11,5 7,4 1016,0
21.05.2019 05:00:00 11,8 7,3 1015,2
21.05.2019 04:00:00 12,6 8,6 1015,0
21.05.2019 03:00:00 12,7 8,3 1015,8
21.05.2019 02:00:00 12,8 7,4 1015,8
21.05.2019 01:00:00 14,4 8,5 1015,8
21.05.2019 00:00:00 16,3 10,3 1015,7
20.05.2019 23:00:00 16,9 10,7 1015,6
20.05.2019 22:00:00 18,2 12,2 1014,8
20.05.2019 21:00:00 18,9 12,6 1014,0
20.05.2019 20:00:00 19,5 12,9 1013,4

tt = temperature
td = dewpoint
ppp = reduced air pressure

Next stations